When you browse on this site, cookies collect data to enhance your experience and personalize the content and advertising you see.
Visit our Privacy Policy to learn more. By continuing to use the site, you agree to this use of cookies and data.
  • In Portugal
  • List of Countries
  • For 7 days
  • Water Temperature
  • Weather Map
  • Weather Widgets
  • user-avatar
    Login

    Hourly Weather Carmarthen

    Today, 22 September, Sunday

    Time Temperature Precipitation Wind Pressure Humidity
    00:00 +15°C° 0 mm 8 mps 749 mmHg 94%
    01:00 +15°C° 1.5 mm 7 mps 749 mmHg 94%
    02:00 +15°C° 1.5 mm 7 mps 748 mmHg 94%
    03:00 +15°C° 1.5 mm 7 mps 748 mmHg 94%
    04:00 +15°C° 0.2 mm 6 mps 748 mmHg 95%
    05:00 +15°C° 0.2 mm 6 mps 748 mmHg 95%
    06:00 +14°C° 0 mm 6 mps 748 mmHg 96%
    07:00 +15°C° 0.3 mm 6 mps 747 mmHg 95%
    08:00 +15°C° 0.3 mm 6 mps 747 mmHg 95%
    09:00 +15°C° 0.3 mm 6 mps 747 mmHg 94%
    10:00 +16°C° 0.2 mm 6 mps 747 mmHg 93%
    11:00 +16°C° 0.2 mm 5 mps 747 mmHg 93%
    12:00 +16°C° 0.2 mm 5 mps 747 mmHg 92%
    13:00 +16°C° 0.1 mm 5 mps 747 mmHg 91%
    14:00 +17°C° 0.1 mm 4 mps 747 mmHg 89%
    15:00 +17°C° 0.1 mm 4 mps 747 mmHg 88%
    16:00 +17°C° 0 mm 3 mps 747 mmHg 90%
    17:00 +16°C° 0 mm 2 mps 748 mmHg 92%
    18:00 +16°C° 0 mm 2 mps 748 mmHg 94%
    19:00 +15°C° 0.1 mm 1 mps 748 mmHg 95%
    20:00 +15°C° 0.1 mm 1 mps 748 mmHg 95%
    21:00 +15°C° 0.1 mm 1 mps 748 mmHg 96%
    22:00 +14°C° 0.1 mm 1 mps 749 mmHg 96%
    23:00 +14°C° 0.1 mm 1 mps 749 mmHg 96%

    Tomorrow, 23 September, Monday

    Time Temperature Precipitation Wind Pressure Humidity
    00:00 +14°C° 0.1 mm 2 mps 749 mmHg 96%
    01:00 +14°C° 0.7 mm 2 mps 749 mmHg 96%
    02:00 +12°C° 0.7 mm 3 mps 749 mmHg 96%
    03:00 +12°C° 0.7 mm 4 mps 749 mmHg 95%
    04:00 +12°C° 0.2 mm 4 mps 750 mmHg 96%
    05:00 +11°C° 0.2 mm 4 mps 750 mmHg 96%
    06:00 +11°C° 0.2 mm 4 mps 750 mmHg 96%
    07:00 +11°C° 0 mm 3 mps 750 mmHg 93%
    08:00 +12°C° 0 mm 3 mps 750 mmHg 90%
    09:00 +13°C° 0 mm 3 mps 750 mmHg 87%
    10:00 +14°C° 0 mm 4 mps 750 mmHg 83%
    11:00 +14°C° 0 mm 5 mps 750 mmHg 79%
    12:00 +15°C° 0 mm 6 mps 750 mmHg 75%
    13:00 +15°C° 0.3 mm 7 mps 749 mmHg 81%
    14:00 +14°C° 0.3 mm 7 mps 749 mmHg 87%
    15:00 +13°C° 0.3 mm 8 mps 748 mmHg 92%
    16:00 +13°C° 0.7 mm 9 mps 748 mmHg 93%
    17:00 +13°C° 0.7 mm 9 mps 747 mmHg 94%
    18:00 +13°C° 0.7 mm 10 mps 747 mmHg 95%
    19:00 +13°C° 0.2 mm 9 mps 747 mmHg 95%
    20:00 +13°C° 0.2 mm 9 mps 747 mmHg 96%
    21:00 +13°C° 0.2 mm 8 mps 746 mmHg 96%
    22:00 +14°C° 0.3 mm 7 mps 746 mmHg 97%
    23:00 +14°C° 0.3 mm 6 mps 746 mmHg 97%

    Day after tomorrow, 24 September, Tuesday

    Time Temperature Precipitation Wind Pressure Humidity
    00:00 +14°C° 0.3 mm 6 mps 746 mmHg 97%
    01:00 +14°C° 0.1 mm 5 mps 745 mmHg 97%
    02:00 +14°C° 0.1 mm 5 mps 745 mmHg 97%
    03:00 +14°C° 0.1 mm 4 mps 745 mmHg 96%
    04:00 +14°C° 0.1 mm 4 mps 744 mmHg 97%
    05:00 +14°C° 0.1 mm 4 mps 744 mmHg 97%
    06:00 +13°C° 0.1 mm 4 mps 744 mmHg 97%
    07:00 +14°C° 0.6 mm 4 mps 744 mmHg 97%
    08:00 +14°C° 0.6 mm 3 mps 744 mmHg 97%
    09:00 +16°C° 0.6 mm 3 mps 744 mmHg 96%
    10:00 +16°C° 0.2 mm 3 mps 744 mmHg 92%
    11:00 +17°C° 0.2 mm 3 mps 744 mmHg 87%
    12:00 +18°C° 0.2 mm 3 mps 744 mmHg 83%
    13:00 +18°C° 0 mm 3 mps 743 mmHg 81%
    14:00 +18°C° 0 mm 4 mps 743 mmHg 80%
    15:00 +18°C° 0 mm 4 mps 743 mmHg 78%
    16:00 +17°C° 0 mm 3 mps 743 mmHg 83%
    17:00 +16°C° 0 mm 3 mps 742 mmHg 87%
    18:00 +14°C° 0 mm 3 mps 742 mmHg 92%
    19:00 +14°C° 0 mm 2 mps 742 mmHg 92%
    20:00 +14°C° 0 mm 2 mps 743 mmHg 93%
    21:00 +13°C° 0 mm 1 mps 743 mmHg 93%
    22:00 +13°C° 0 mm 1 mps 743 mmHg 93%
    23:00 +13°C° 0 mm 1 mps 743 mmHg 93%

    25 September, Wednesday

    Time Temperature Precipitation Wind Pressure Humidity
    00:00 +12°C° 0 mm 1 mps 743 mmHg 93%
    01:00 +12°C° 0 mm 2 mps 743 mmHg 94%
    02:00 +12°C° 0 mm 2 mps 744 mmHg 95%
    03:00 +11°C° 0 mm 3 mps 744 mmHg 95%
    04:00 +11°C° 0.2 mm 3 mps 744 mmHg 95%
    05:00 +11°C° 0.2 mm 3 mps 744 mmHg 95%
    06:00 +11°C° 0.2 mm 4 mps 744 mmHg 95%
    07:00 +12°C° 0.1 mm 3 mps 745 mmHg 94%
    08:00 +13°C° 0.1 mm 3 mps 745 mmHg 92%
    09:00 +13°C° 0.1 mm 3 mps 746 mmHg 91%
    10:00 +14°C° 0 mm 3 mps 746 mmHg 88%
    11:00 +16°C° 0 mm 3 mps 746 mmHg 84%
    12:00 +17°C° 0 mm 2 mps 746 mmHg 81%
    13:00 +18°C° 0 mm 3 mps 746 mmHg 80%
    14:00 +18°C° 0 mm 3 mps 746 mmHg 80%
    15:00 +19°C° 0 mm 3 mps 746 mmHg 79%
    16:00 +18°C° 0.1 mm 4 mps 746 mmHg 83%
    17:00 +16°C° 0.1 mm 5 mps 745 mmHg 87%
    18:00 +15°C° 0.1 mm 5 mps 745 mmHg 91%
    19:00 +15°C° 0.8 mm 6 mps 744 mmHg 93%
    20:00 +14°C° 0.8 mm 7 mps 744 mmHg 95%
    21:00 +13°C° 0.8 mm 8 mps 743 mmHg 97%
    22:00 +14°C° 1.9 mm 7 mps 743 mmHg 96%
    23:00 +14°C° 1.9 mm 7 mps 743 mmHg 96%

    26 September, Thursday

    Time Temperature Precipitation Wind Pressure Humidity
    00:00 +15°C° 1.9 mm 6 mps 743 mmHg 96%
    01:00 +14°C° 0.2 mm 6 mps 743 mmHg 94%
    02:00 +13°C° 0.2 mm 6 mps 743 mmHg 93%
    03:00 +12°C° 0.2 mm 5 mps 743 mmHg 91%
    04:00 +10°C° 0 mm 5 mps 743 mmHg 92%
    05:00 +10°C° 0 mm 5 mps 743 mmHg 92%
    06:00 +9°C° 0 mm 5 mps 743 mmHg 93%
    07:00 +9°C° 0.1 mm 5 mps 744 mmHg 93%
    08:00 +10°C° 0.1 mm 6 mps 744 mmHg 93%
    09:00 +11°C° 0.1 mm 6 mps 744 mmHg 94%
    10:00 +12°C° 0.1 mm 7 mps 744 mmHg 90%
    11:00 +14°C° 0.1 mm 7 mps 744 mmHg 87%
    12:00 +15°C° 0.1 mm 7 mps 745 mmHg 84%
    13:00 +15°C° 0.2 mm 7 mps 745 mmHg 82%
    14:00 +15°C° 0.2 mm 7 mps 744 mmHg 81%
    15:00 +15°C° 0.2 mm 6 mps 744 mmHg 80%
    16:00 +14°C° 0.1 mm 6 mps 744 mmHg 83%
    17:00 +13°C° 0.1 mm 6 mps 745 mmHg 85%
    18:00 +11°C° 0.1 mm 6 mps 745 mmHg 87%
    19:00 +11°C° 0 mm 6 mps 745 mmHg 88%
    20:00 +10°C° 0 mm 7 mps 745 mmHg 88%
    21:00 +10°C° 0 mm 7 mps 745 mmHg 89%
    22:00 +10°C° 0 mm 7 mps 746 mmHg 89%
    23:00 +10°C° 0 mm 7 mps 746 mmHg 90%

    27 September, Friday

    Time Temperature Precipitation Wind Pressure Humidity
    00:00 +10°C° 0 mm 7 mps 746 mmHg 90%
    01:00 +10°C° 0 mm 8 mps 746 mmHg 90%
    02:00 +10°C° 0 mm 8 mps 745 mmHg 90%
    03:00 +11°C° 0 mm 8 mps 745 mmHg 90%
    04:00 +10°C° 0.2 mm 8 mps 745 mmHg 90%
    05:00 +10°C° 0.2 mm 8 mps 745 mmHg 91%
    06:00 +10°C° 0.2 mm 8 mps 745 mmHg 91%
    07:00 +10°C° 0 mm 8 mps 745 mmHg 90%
    08:00 +10°C° 0 mm 8 mps 745 mmHg 90%
    09:00 +10°C° 0 mm 8 mps 745 mmHg 89%
    10:00 +11°C° 0 mm 8 mps 745 mmHg 88%
    11:00 +11°C° 0 mm 8 mps 745 mmHg 87%
    12:00 +11°C° 0 mm 9 mps 745 mmHg 85%
    13:00 +11°C° 0 mm 9 mps 745 mmHg 85%
    14:00 +11°C° 0 mm 8 mps 744 mmHg 84%
    15:00 +11°C° 0 mm 8 mps 744 mmHg 84%
    16:00 +11°C° 0.1 mm 9 mps 744 mmHg 85%
    17:00 +11°C° 0.1 mm 9 mps 743 mmHg 87%
    18:00 +11°C° 0.1 mm 9 mps 743 mmHg 88%
    19:00 +11°C° 0.4 mm 9 mps 743 mmHg 90%
    20:00 +11°C° 0.4 mm 9 mps 743 mmHg 91%
    21:00 +10°C° 0.4 mm 9 mps 742 mmHg 93%
    22:00 +10°C° 0.3 mm 9 mps 742 mmHg 93%
    23:00 +10°C° 0.3 mm 9 mps 742 mmHg 92%
    Show more